Hourly Data Report for July 21, 2021

NORTH CAPE
PRINCE EDWARD ISLAND
Current Station Operator: ECCC - MSC

47°03'29.000" N
63°59'55.000" W
7.60 m
8300516
71987
WNE

Download Data

Hourly Data (July 2021)
Hourly Data Report for July 21, 2021
TIME
LST
Temp Definition
°C
Dew Point Definition
°C
Rel Hum Definition
%
Precip. Amount Definition
mm

Wind Dir Definition
10's deg

Wind Spd Definition
km/h
Visibility Definition
km
Stn Press Definition
kPa
Hmdx Definition


Wind Chill Definition


Weather Definition


00:00 16.7 15.1 90 0.0 3 27   101.05     LegendNANA
01:00 16.6 15.1 91 0.0 2 22   101.05     LegendNANA
02:00 16.7 15.0 90 0.0 3 21   101.06     LegendNANA
03:00 16.7 14.6 88 0.0 4 23   101.10     LegendNANA
04:00 16.7 14.9 89 0.0 4 21   101.15     LegendNANA
05:00 16.8 14.4 86 0.0 4 23   101.16     LegendNANA
06:00 16.9 14.7 87 0.0 5 19   101.20     LegendNANA
07:00 16.7 14.3 86 0.0 5 22   101.26     LegendNANA
08:00 17.1 15.3 89 0.0 5 24   101.23     LegendNANA
09:00 17.6 15.0 85 0.0 7 24   101.22     LegendNANA
10:00 18.0 15.2 84 0.0 8 18   101.25     LegendNANA
11:00 18.6 16.1 86 0.0 7 18   101.24     LegendNANA
12:00 18.0 15.4 85 0.0 7 18   101.26     LegendNANA
13:00 17.8 15.5 87 0.0 6 22   101.23     LegendNANA
14:00 17.6 15.8 89 0.0 6 20   101.23     LegendNANA
15:00 17.5 16.4 93 0.0 5 23   101.21     LegendNANA
16:00 17.1 16.1 94 0.0 5 30   101.19     LegendNANA
17:00 16.9 15.9 94 0.0 5 36   101.13     LegendNANA
18:00 16.6 15.7 95 2.4 5 34   101.13     LegendNANA
19:00 16.5 15.9 96 1.9 5 31   101.16     LegendNANA
20:00 16.6 15.7 94 0.5 6 34   101.15     LegendNANA
21:00 16.6 15.5 93 0.0 6 33   101.18     LegendNANA
22:00 16.7 15.4 92 0.0 7 30   101.15     LegendNANA
23:00 16.5 14.7 89 0.0 6 33   101.11     LegendNANA

Notes on Data Quality.

Legend

  • E = Estimated
  • M = Missing
  • NA = Not Available*
  • [empty] = Indicates an unobserved value
Date modified: